When you browse on this site, cookies collect data to enhance your experience and personalize the content and advertising you see.
Visit our Privacy Policy to learn more. By continuing to use the site, you agree to this use of cookies and data.
  • In United Kingdom
  • List of Countries
  • For 7 days
  • Water Temperature
  • Weather Map
  • Weather Widgets
  • user-avatar
    Login

    Hourly Weather Campo Grande

    Today, 18 February, Tuesday

    Time Temperature Precipitation Wind Pressure Humidity
    00:00 +25°C° 0.1 mm 3 mps 708 mmHg 87%
    01:00 +25°C° 0.1 mm 2 mps 708 mmHg 86%
    02:00 +25°C° 0 mm 2 mps 708 mmHg 84%
    03:00 +25°C° 0 mm 2 mps 708 mmHg 84%
    04:00 +25°C° 0 mm 2 mps 709 mmHg 85%
    05:00 +25°C° 0 mm 2 mps 709 mmHg 86%
    06:00 +26°C° 0 mm 2 mps 709 mmHg 83%
    07:00 +27°C° 0 mm 2 mps 710 mmHg 80%
    08:00 +29°C° 0 mm 2 mps 711 mmHg 77%
    09:00 +30°C° 0 mm 3 mps 711 mmHg 72%
    10:00 +31°C° 0 mm 3 mps 711 mmHg 68%
    11:00 +33°C° 0 mm 3 mps 711 mmHg 63%
    12:00 +34°C° 0.1 mm 3 mps 710 mmHg 62%
    13:00 +34°C° 0.1 mm 3 mps 709 mmHg 60%
    14:00 +34°C° 0.1 mm 3 mps 709 mmHg 59%
    15:00 +34°C° 0.6 mm 2 mps 708 mmHg 64%
    16:00 +32°C° 0.6 mm 2 mps 708 mmHg 69%
    17:00 +32°C° 0.6 mm 1 mps 707 mmHg 73%
    18:00 +30°C° 0.2 mm 1 mps 708 mmHg 75%
    19:00 +29°C° 0.2 mm 1 mps 708 mmHg 76%
    20:00 +28°C° 0.2 mm 1 mps 708 mmHg 77%
    21:00 +28°C° 0.6 mm 1 mps 708 mmHg 78%
    22:00 +27°C° 0.6 mm 1 mps 709 mmHg 80%
    23:00 +27°C° 0.6 mm 2 mps 709 mmHg 82%

    Tomorrow, 19 February, Wednesday

    Time Temperature Precipitation Wind Pressure Humidity
    00:00 +27°C° 0 mm 2 mps 708 mmHg 82%
    01:00 +26°C° 0 mm 1 mps 708 mmHg 82%
    02:00 +26°C° 0 mm 1 mps 708 mmHg 83%
    03:00 +26°C° 0 mm 1 mps 707 mmHg 84%
    04:00 +26°C° 0 mm 1 mps 707 mmHg 85%
    05:00 +25°C° 0 mm 1 mps 707 mmHg 86%
    06:00 +26°C° 0 mm 1 mps 708 mmHg 82%
    07:00 +28°C° 0 mm 1 mps 708 mmHg 79%
    08:00 +29°C° 0 mm 1 mps 709 mmHg 75%
    09:00 +30°C° 0.1 mm 2 mps 709 mmHg 71%
    10:00 +31°C° 0.1 mm 2 mps 709 mmHg 67%
    11:00 +33°C° 0.1 mm 3 mps 709 mmHg 63%
    12:00 +33°C° 1.1 mm 3 mps 708 mmHg 66%
    13:00 +33°C° 1.1 mm 3 mps 707 mmHg 69%
    14:00 +33°C° 1.1 mm 3 mps 707 mmHg 71%
    15:00 +31°C° 3 mm 2 mps 706 mmHg 75%
    16:00 +30°C° 3 mm 2 mps 706 mmHg 78%
    17:00 +29°C° 3 mm 1 mps 706 mmHg 81%
    18:00 +28°C° 0.5 mm 1 mps 706 mmHg 83%
    19:00 +27°C° 0.5 mm 1 mps 706 mmHg 85%
    20:00 +26°C° 0.5 mm 2 mps 706 mmHg 87%
    21:00 +26°C° 0 mm 1 mps 707 mmHg 86%
    22:00 +26°C° 0 mm 1 mps 707 mmHg 85%
    23:00 +26°C° 0 mm 1 mps 707 mmHg 84%

    Day after tomorrow, 20 February, Thursday

    Time Temperature Precipitation Wind Pressure Humidity
    00:00 +26°C° 0 mm 1 mps 707 mmHg 84%
    01:00 +26°C° 0 mm 1 mps 706 mmHg 84%
    02:00 +26°C° 0 mm 1 mps 706 mmHg 84%
    03:00 +26°C° 0.1 mm 1 mps 706 mmHg 85%
    04:00 +26°C° 0.1 mm 1 mps 706 mmHg 86%
    05:00 +25°C° 0.1 mm 1 mps 706 mmHg 86%
    06:00 +26°C° 0 mm 1 mps 707 mmHg 84%
    07:00 +28°C° 0 mm 1 mps 707 mmHg 81%
    08:00 +29°C° 0 mm 1 mps 708 mmHg 78%
    09:00 +29°C° 1.6 mm 2 mps 708 mmHg 79%
    10:00 +29°C° 1.6 mm 2 mps 708 mmHg 80%
    11:00 +29°C° 1.6 mm 2 mps 708 mmHg 80%
    12:00 +29°C° 1.2 mm 2 mps 708 mmHg 79%
    13:00 +30°C° 1.2 mm 2 mps 707 mmHg 78%
    14:00 +30°C° 1.2 mm 2 mps 707 mmHg 77%
    15:00 +29°C° 0.5 mm 2 mps 706 mmHg 79%
    16:00 +29°C° 0.5 mm 1 mps 706 mmHg 81%
    17:00 +28°C° 0.5 mm 1 mps 706 mmHg 83%
    18:00 +28°C° 0.2 mm 1 mps 706 mmHg 84%
    19:00 +27°C° 0.2 mm 1 mps 706 mmHg 84%
    20:00 +27°C° 0.2 mm 1 mps 707 mmHg 84%
    21:00 +26°C° 0.4 mm 1 mps 707 mmHg 85%
    22:00 +26°C° 0.4 mm 1 mps 707 mmHg 86%
    23:00 +26°C° 0.4 mm 1 mps 707 mmHg 87%

    21 February, Friday

    Time Temperature Precipitation Wind Pressure Humidity
    00:00 +25°C° 0.6 mm 1 mps 707 mmHg 88%
    01:00 +25°C° 0.6 mm 1 mps 707 mmHg 88%
    02:00 +24°C° 0.6 mm 1 mps 706 mmHg 88%
    09:00 +28°C° 0.1 mm 1 mps 709 mmHg 76%
    10:00 +29°C° 0.1 mm 2 mps 709 mmHg 73%
    11:00 +30°C° 0.1 mm 2 mps 709 mmHg 70%
    12:00 +30°C° 1.2 mm 2 mps 708 mmHg 71%
    13:00 +30°C° 1.2 mm 2 mps 708 mmHg 73%
    14:00 +30°C° 1.2 mm 2 mps 707 mmHg 75%
    15:00 +29°C° 0.2 mm 2 mps 707 mmHg 78%
    16:00 +29°C° 0.2 mm 2 mps 707 mmHg 80%
    17:00 +28°C° 0.2 mm 2 mps 706 mmHg 83%
    18:00 +27°C° 1.4 mm 2 mps 707 mmHg 86%
    19:00 +27°C° 1.4 mm 2 mps 707 mmHg 88%
    20:00 +26°C° 1.4 mm 2 mps 707 mmHg 91%
    21:00 +25°C° 1.8 mm 2 mps 708 mmHg 90%
    22:00 +25°C° 1.8 mm 2 mps 708 mmHg 88%
    23:00 +25°C° 1.8 mm 3 mps 708 mmHg 87%

    22 February, Saturday

    Time Temperature Precipitation Wind Pressure Humidity
    00:00 +25°C° 0.7 mm 3 mps 708 mmHg 88%
    01:00 +24°C° 0.7 mm 3 mps 707 mmHg 89%
    02:00 +24°C° 0.7 mm 3 mps 707 mmHg 89%
    03:00 +22°C° 0 mm 3 mps 707 mmHg 88%
    04:00 +21°C° 0 mm 3 mps 707 mmHg 86%
    05:00 +20°C° 0 mm 4 mps 708 mmHg 84%
    06:00 +21°C° 0.1 mm 4 mps 708 mmHg 83%
    07:00 +21°C° 0.1 mm 4 mps 709 mmHg 81%
    08:00 +22°C° 0.1 mm 4 mps 709 mmHg 80%
    09:00 +24°C° 0 mm 3 mps 709 mmHg 76%
    10:00 +26°C° 0 mm 3 mps 709 mmHg 72%
    11:00 +28°C° 0 mm 3 mps 710 mmHg 68%
    12:00 +28°C° 0.1 mm 3 mps 709 mmHg 68%
    13:00 +28°C° 0.1 mm 3 mps 709 mmHg 68%
    14:00 +29°C° 0.1 mm 3 mps 708 mmHg 68%
    15:00 +28°C° 0.3 mm 3 mps 708 mmHg 71%
    16:00 +27°C° 0.3 mm 3 mps 708 mmHg 74%
    17:00 +26°C° 0.3 mm 3 mps 707 mmHg 77%
    18:00 +25°C° 0 mm 3 mps 708 mmHg 78%
    19:00 +24°C° 0 mm 2 mps 708 mmHg 79%
    20:00 +23°C° 0 mm 2 mps 708 mmHg 81%
    21:00 +21°C° 0 mm 2 mps 708 mmHg 82%
    22:00 +21°C° 0 mm 2 mps 708 mmHg 83%
    23:00 +20°C° 0 mm 2 mps 709 mmHg 84%

    23 February, Sunday

    Time Temperature Precipitation Wind Pressure Humidity
    00:00 +20°C° 0 mm 2 mps 708 mmHg 85%
    01:00 +20°C° 0 mm 2 mps 708 mmHg 85%
    02:00 +20°C° 0 mm 2 mps 707 mmHg 85%
    03:00 +20°C° 0 mm 2 mps 708 mmHg 85%
    04:00 +20°C° 0 mm 2 mps 708 mmHg 85%
    05:00 +21°C° 0 mm 2 mps 708 mmHg 86%
    06:00 +21°C° 0 mm 2 mps 708 mmHg 85%
    07:00 +23°C° 0 mm 2 mps 709 mmHg 84%
    08:00 +24°C° 0 mm 2 mps 709 mmHg 83%
    09:00 +25°C° 0.7 mm 2 mps 709 mmHg 84%
    10:00 +26°C° 0.7 mm 2 mps 709 mmHg 84%
    11:00 +26°C° 0.7 mm 2 mps 709 mmHg 85%
    12:00 +26°C° 2.1 mm 2 mps 709 mmHg 85%
    13:00 +27°C° 2.1 mm 2 mps 709 mmHg 85%
    14:00 +27°C° 2.1 mm 2 mps 708 mmHg 84%
    15:00 +26°C° 1.8 mm 2 mps 708 mmHg 87%
    16:00 +26°C° 1.8 mm 2 mps 707 mmHg 89%
    17:00 +25°C° 1.8 mm 2 mps 707 mmHg 91%
    18:00 +25°C° 0.6 mm 2 mps 707 mmHg 92%
    19:00 +24°C° 0.6 mm 2 mps 707 mmHg 94%
    20:00 +24°C° 0.6 mm 2 mps 708 mmHg 95%
    21:00 +23°C° 0.2 mm 2 mps 708 mmHg 95%
    22:00 +23°C° 0.2 mm 2 mps 708 mmHg 95%
    23:00 +21°C° 0.2 mm 2 mps 708 mmHg 96%
    Show more